Jackson, WY

8:24 PM MDT on October 19, 2017 (GMT -0600)
Jackson Hole

Weather History for KJAC - August, 2013

Change the Weather History Date:

Tuesday, August 20, 2013

  Actual Average Record
Temperature  
Mean Temperature 68 °F -  
Max Temperature 84 °F 75 °F 91 °F (1986)
Min Temperature 51 °F 39 °F 27 °F (1964)
Cooling Degree Days 2    
Growing Degree Days 18 (Base 50)    
Moisture  
Dew Point 35 °F    
Average Humidity 39    
Maximum Humidity 58    
Minimum Humidity 14    
Precipitation  
Precipitation 0.00 in - - ()
Sea Level Pressure  
Sea Level Pressure 30.20 in    
Wind  
Wind Speed 5 mph (NNW)    
Max Wind Speed 12 mph    
Max Gust Speed 18 mph    
Visibility 10 miles    
Events      
Averages and records for this station are not official NWS values.
T = Trace of Precipitation, MM = Missing Value Source: NWS Daily Summary

Daily Weather History Graph

Daily Weather History Graph

Search for Another Location

Airport or City:

Trip Planner

Search our weather history database for the weather conditions in past years. The results will help you decide how hot, cold, wet, or windy it might be!

Date:

Astronomy

Aug. 20, 2013 Rise Set
Actual Time 6:33 AM MDT 8:18 PM MDT
Civil Twilight 6:03 AM MDT 8:48 PM MDT
Nautical Twilight 5:25 AM MDT 9:25 PM MDT
Astronomical Twilight 4:45 AM MDT 10:05 PM MDT
Moon 7:49 PM MDT 6:08 AM MDT
Length of Visible Light 14h 45m
Length of Day
13h 44m
Full, 100% of the Moon is Illuminated
Aug 20
Full
Aug 20
Full
Aug 28
Last Quarter
Sep 5
New
Sep 12
First Quarter

Hourly Weather History & Observations

Time (MDT) Temp. Dew Point Humidity Pressure Visibility Wind Dir Wind Speed Gust Speed Precip Events Conditions
12:15 AM 57.2 °F 39.2 °F 51% 30.21 in 10.0 mi Calm Calm - N/A   Clear
12:35 AM 55.4 °F 33.8 °F 44% 30.21 in 10.0 mi North 5.8 mph - N/A   Clear
12:55 AM 57.2 °F 33.8 °F 41% 30.21 in 10.0 mi North 9.2 mph - N/A   Clear
1:15 AM 57.2 °F 35.6 °F 44% 30.21 in 10.0 mi North 5.8 mph - N/A   Clear
1:35 AM 55.4 °F 35.6 °F 47% 30.21 in 10.0 mi North 6.9 mph - N/A   Clear
1:55 AM 55.4 °F 35.6 °F 47% 30.21 in 10.0 mi NNW 5.8 mph - N/A   Clear
2:15 AM 55.4 °F 35.6 °F 47% 30.21 in 10.0 mi North 8.1 mph - N/A   Clear
2:35 AM 55.4 °F 35.6 °F 47% 30.21 in 10.0 mi North 6.9 mph - N/A   Clear
2:55 AM 53.6 °F 33.8 °F 47% 30.20 in 10.0 mi North 8.1 mph - N/A   Clear
3:35 AM 55.4 °F 33.8 °F 44% 30.20 in 10.0 mi North 8.1 mph - N/A   Clear
3:55 AM 55.4 °F 33.8 °F 44% 30.20 in 10.0 mi NE 4.6 mph - N/A   Clear
4:15 AM 53.6 °F 33.8 °F 47% 30.20 in 10.0 mi North 6.9 mph - N/A   Clear
4:35 AM 51.8 °F 33.8 °F 50% 30.20 in 10.0 mi Calm Calm - N/A   Clear
4:55 AM 51.8 °F 33.8 °F 50% 30.20 in 10.0 mi NE 5.8 mph - N/A   Clear
5:15 AM 53.6 °F 33.8 °F 47% 30.20 in 10.0 mi NNE 3.5 mph - N/A   Clear
5:35 AM 53.6 °F 33.8 °F 47% 30.21 in 10.0 mi Calm Calm - N/A   Clear
5:55 AM 51.8 °F 35.6 °F 54% 30.21 in 10.0 mi NNE 3.5 mph - N/A   Clear
6:15 AM 51.8 °F 35.6 °F 54% 30.21 in 10.0 mi NNW 4.6 mph - N/A   Partly Cloudy
6:35 AM 51.8 °F 35.6 °F 54% 30.22 in 10.0 mi NNE 3.5 mph - N/A   Mostly Cloudy
6:51 AM 51.8 °F 37.4 °F 58% 30.22 in 10.0 mi Calm Calm - N/A   Mostly Cloudy
7:55 AM 55.4 °F 37.4 °F 51% 30.23 in 10.0 mi Calm Calm - N/A   Mostly Cloudy
8:51 AM 64.4 °F 37.4 °F 37% 30.22 in 10.0 mi ESE 5.8 mph - N/A   Mostly Cloudy
9:52 AM 64.4 °F 37.4 °F 37% 30.23 in 10.0 mi Calm Calm - N/A   Mostly Cloudy
10:52 AM 69.8 °F 37.4 °F 31% 30.23 in 10.0 mi South 6.9 mph - N/A   Clear
11:51 AM 73.4 °F 42.8 °F 33% 30.22 in 10.0 mi SSW 5.8 mph - N/A   Clear
12:51 PM 80.6 °F 42.8 °F 26% 30.19 in 10.0 mi South 11.5 mph - N/A   Clear
1:51 PM 82.4 °F 37.4 °F 20% 30.18 in 10.0 mi South 10.4 mph - N/A   Mostly Cloudy
2:51 PM 84.2 °F 35.6 °F 18% 30.16 in 10.0 mi SW 8.1 mph 18.4 mph N/A   Mostly Cloudy
3:54 PM 84.2 °F 35.6 °F 18% 30.15 in 10.0 mi SW 5.8 mph - N/A   Partly Cloudy
4:51 PM 82.4 °F 33.8 °F 17% 30.14 in 10.0 mi SSW 6.9 mph - N/A   Clear
5:51 PM 82.4 °F 28.4 °F 14% 30.14 in 10.0 mi WSW 10.4 mph - N/A   Clear
6:53 PM 80.6 °F 28.4 °F 15% 30.14 in 10.0 mi SW 8.1 mph - N/A   Clear
7:51 PM 75.2 °F 30.2 °F 19% 30.15 in 10.0 mi SW 5.8 mph - N/A   Clear
8:52 PM 69.8 °F 33.8 °F 27% 30.17 in 10.0 mi Calm Calm - N/A   Clear